Find Starlink 5039

NORAD ID: 57247 Int'l Des: 2023-094 Owner: SPXS Country: US Constellation: starlink operational
LEOCIRCULAR

实时位置

正在加载3D地球...

关于 Starlink 5039

正在加载描述...

即将过境

Passes for default location (London). Set your location on the main map for personalized predictions.

高度历史

Loading altitude history...

两行轨道根数

1 57247U 23094AF 26106.87224686 .00000934 00000-0 43446-4 0 9992
2 57247 43.0033 163.8956 0001310 270.0376 90.0326 15.27579085153084
Epoch: Apr 16, 2026 • Age: 6 hours

当前状态

高度 482.3 km
速度 7.63 km/s
星下点 6.28°N, 84.89°W
发射日期 Jul 7, 2023
运行时间 2.7 years
类型 internet

技术详情

分类 Payload
质量 305.00 kg
干质量 290.00 kg
总质量 305.00 kg
长度 0.20 m
直径 2.80 m
跨度 9.00 m
形状 Box + pan
制造商 SPXS
平台类型 Starlink
阶段状态 In Orbit
所有者/国家 SPXS/US

Most Searched